Fort Payne, AL

1:46 PM CDT on August 25, 2016 (GMT -0500)
Fort Payne

Weather History for K4A9 - February, 2014

Change the Weather History Date:

Wednesday, February 26, 2014

  Actual Average (KRMG) Record (KRMG)
Temperature  
Mean Temperature 34 °F 47 °F  
Max Temperature 41 °F 59 °F 73 °F (1998)
Min Temperature 26 °F 35 °F 26 °F (2015)
Degree Days  
Heating Degree Days 32 18  
Month to date heating degree days 544  
Since 1 July heating degree days 2586  
Moisture  
Dew Point 18 °F    
Average Humidity 51    
Maximum Humidity 100    
Minimum Humidity 28    
Precipitation  
Precipitation 0.03 in 0.20 in 0.75 in (2008)
Month to date precipitation 4.46  
Year to date precipitation 9.28  
Sea Level Pressure  
Sea Level Pressure 29.97 in    
Wind  
Wind Speed 7 mph (NNW)    
Max Wind Speed 16 mph    
Max Gust Speed 22 mph    
Visibility 10 miles    
Events Rain    
T = Trace of Precipitation, MM = Missing Value Source: NWS Daily Summary

Daily Weather History Graph

Daily Weather History Graph

Search for Another Location

Airport or City:

Trip Planner

Search our weather history database for the weather conditions in past years. The results will help you decide how hot, cold, wet, or windy it might be!

Date:

Astronomy

Feb. 26, 2014 Rise Set
Actual Time 6:15 AM CST 5:36 PM CST
Civil Twilight 5:50 AM CST 6:01 PM CST
Nautical Twilight 5:21 AM CST 6:30 PM CST
Astronomical Twilight 4:52 AM CST 7:00 PM CST
Moon 3:55 AM CST (2/26) 2:54 PM CST (2/26)
Length of Visible Light 12h 11m
Length of Day
11h 20m
Waning Crescent, 10% of the Moon is Illuminated
Feb 26
Waning Crescent
Mar 1
New
Mar 8
First Quarter
Mar 16
Full
Mar 23
Last Quarter

Hourly Weather History & Observations

Time (CST) Temp. Windchill Dew Point Humidity Pressure Visibility Wind Dir Wind Speed Gust Speed Precip Events Conditions
12:15 AM 39.2 °F - 32.0 °F 75% 29.97 in 10.0 mi Calm Calm - N/A Rain Rain
12:35 AM 41.0 °F - 32.0 °F 70% 29.96 in 10.0 mi Calm Calm - N/A   Overcast
12:55 AM 41.0 °F - 41.0 °F 100% 29.98 in 10.0 mi Calm Calm - N/A   Overcast
1:15 AM 41.0 °F - 32.0 °F 70% 29.96 in 10.0 mi Calm Calm - N/A   Overcast
1:35 AM 41.0 °F 39.0 °F 28.4 °F 61% 29.96 in 10.0 mi North 3.5 mph - N/A Rain Light Rain
1:55 AM 39.2 °F 35.9 °F 30.2 °F 70% 29.95 in 10.0 mi North 4.6 mph - N/A   Overcast
2:15 AM 39.2 °F 35.9 °F 28.4 °F 65% 29.96 in 10.0 mi North 4.6 mph - N/A Rain Light Rain
2:35 AM 39.2 °F 37.0 °F 28.4 °F 65% 29.96 in 10.0 mi NNW 3.5 mph - N/A   Overcast
2:55 AM 39.2 °F 35.0 °F 26.6 °F 61% 29.96 in 10.0 mi North 5.8 mph - N/A   Overcast
3:15 AM 39.2 °F 35.0 °F 23.0 °F 52% 29.96 in 10.0 mi North 5.8 mph - N/A   Overcast
3:35 AM 39.2 °F 35.9 °F 23.0 °F 52% 29.96 in 10.0 mi North 4.6 mph - N/A   Overcast
3:55 AM 37.4 °F 29.8 °F 23.0 °F 56% 29.96 in 10.0 mi North 11.5 mph 17.3 mph N/A   Overcast
4:15 AM 37.4 °F 29.8 °F 23.0 °F 56% 29.97 in 10.0 mi North 11.5 mph 16.1 mph N/A   Overcast
4:35 AM 37.4 °F 28.9 °F 23.0 °F 56% 29.98 in 10.0 mi North 13.8 mph - N/A   Overcast
4:55 AM 35.6 °F 27.1 °F 23.0 °F 60% 30.00 in 10.0 mi North 12.7 mph - N/A   Overcast
5:15 AM 35.6 °F 26.6 °F 24.8 °F 65% 30.01 in 10.0 mi NNW 13.8 mph 20.7 mph N/A   Overcast
5:35 AM 35.6 °F 26.6 °F 24.8 °F 65% 30.03 in 10.0 mi North 13.8 mph 19.6 mph N/A   Overcast
5:55 AM 33.8 °F 23.5 °F 26.6 °F 75% 30.03 in 10.0 mi North 16.1 mph 21.9 mph N/A   Overcast
6:15 AM 33.8 °F 24.8 °F 26.6 °F 75% 30.03 in 10.0 mi North 12.7 mph 17.3 mph N/A   Overcast
6:35 AM 33.8 °F 25.8 °F 26.6 °F 75% 30.03 in 10.0 mi North 10.4 mph - N/A   Overcast
6:55 AM 33.8 °F 24.8 °F 26.6 °F 75% 30.03 in 10.0 mi North 12.7 mph 18.4 mph N/A   Overcast
7:15 AM 32.0 °F 23.6 °F 24.8 °F 75% 30.03 in 10.0 mi North 10.4 mph - N/A   Overcast
7:35 AM 32.0 °F 23.6 °F 26.6 °F 80% 30.03 in 10.0 mi North 10.4 mph - N/A   Overcast
7:55 AM 32.0 °F 23.6 °F 26.6 °F 80% 30.03 in 10.0 mi North 10.4 mph 16.1 mph N/A   Overcast
8:15 AM 32.0 °F 23.0 °F 24.8 °F 75% 30.03 in 10.0 mi North 11.5 mph 18.4 mph N/A   Overcast
8:35 AM 32.0 °F 22.1 °F 23.0 °F 69% 30.04 in 10.0 mi NNE 13.8 mph 19.6 mph N/A   Overcast
8:55 AM 32.0 °F 22.5 °F 21.2 °F 64% 30.04 in 10.0 mi North 12.7 mph 19.6 mph N/A   Scattered Clouds
9:15 AM 32.0 °F 22.1 °F 21.2 °F 64% 30.03 in 10.0 mi North 13.8 mph 18.4 mph N/A   Clear
9:35 AM 33.8 °F 27.0 °F 19.4 °F 56% 30.03 in 10.0 mi North 8.1 mph - N/A   Clear
9:55 AM 33.8 °F 25.3 °F 21.2 °F 60% 30.03 in 10.0 mi North 11.5 mph 18.4 mph N/A   Clear
10:15 AM 35.6 °F 28.0 °F 21.2 °F 56% 30.03 in 10.0 mi NNW 10.4 mph - N/A   Clear
10:35 AM 35.6 °F 27.5 °F 21.2 °F 56% 30.02 in 10.0 mi North 11.5 mph 21.9 mph N/A   Clear
10:55 AM 37.4 °F 30.3 °F 21.2 °F 52% 30.01 in 10.0 mi NNE 10.4 mph 20.7 mph N/A   Clear
11:15 AM 37.4 °F 29.8 °F 19.4 °F 48% 30.00 in 10.0 mi North 11.5 mph 21.9 mph N/A   Clear
11:35 AM 37.4 °F 29.3 °F 21.2 °F 52% 29.99 in 10.0 mi North 12.7 mph 19.6 mph N/A   Clear
11:55 AM 37.4 °F 29.8 °F 21.2 °F 52% 29.98 in 10.0 mi NE 11.5 mph - N/A   Clear
12:15 PM 37.4 °F 29.8 °F 21.2 °F 52% 29.96 in 10.0 mi NE 11.5 mph 15.0 mph N/A   Clear
12:35 PM 39.2 °F 32.0 °F 21.2 °F 49% 29.95 in - NW 11.5 mph 17.3 mph 0.03 in   Clear
12:55 PM 37.4 °F 28.2 °F 21.2 °F 52% 29.94 in 10.0 mi NW 16.1 mph 19.6 mph 0.03 in   Clear
1:15 PM 39.2 °F 32.5 °F 21.2 °F 49% 29.94 in 10.0 mi NW 10.4 mph 17.3 mph N/A   Clear
1:35 PM 41.0 °F 34.3 °F 21.2 °F 45% 29.93 in 10.0 mi NW 11.5 mph 17.3 mph N/A   Clear
1:55 PM 41.0 °F 33.9 °F 19.4 °F 42% 29.92 in 10.0 mi NW 12.7 mph 19.6 mph N/A   Clear
2:15 PM 41.0 °F 36.4 °F 19.4 °F 42% 29.92 in 10.0 mi North 6.9 mph 16.1 mph N/A   Clear
2:35 PM 41.0 °F 34.3 °F 19.4 °F 42% 29.92 in 10.0 mi NW 11.5 mph 18.4 mph N/A   Clear
2:55 PM 41.0 °F 33.5 °F 17.6 °F 39% 29.91 in 10.0 mi North 13.8 mph 19.6 mph N/A   Clear
3:15 PM 41.0 °F 34.3 °F 17.6 °F 39% 29.92 in 10.0 mi NW 11.5 mph 16.1 mph N/A   Clear
3:35 PM 41.0 °F 34.7 °F 17.6 °F 39% 29.91 in 10.0 mi NNW 10.4 mph 18.4 mph N/A   Clear
3:55 PM 41.0 °F 35.2 °F 15.8 °F 36% 29.91 in 10.0 mi NNW 9.2 mph 18.4 mph N/A   Clear
4:15 PM 39.2 °F 32.5 °F 14.0 °F 36% 29.91 in 10.0 mi NW 10.4 mph 17.3 mph N/A   Clear
4:35 PM 39.2 °F 32.0 °F 14.0 °F 36% 29.92 in 10.0 mi North 11.5 mph 16.1 mph N/A   Clear
4:55 PM 37.4 °F 29.3 °F 10.4 °F 33% 29.93 in 10.0 mi NNW 12.7 mph 16.1 mph N/A   Clear
5:15 PM 37.4 °F 31.4 °F 8.6 °F 30% 29.93 in 10.0 mi NNW 8.1 mph 18.4 mph N/A   Clear
5:35 PM 35.6 °F 29.2 °F 5.0 °F 28% 29.93 in 10.0 mi North 8.1 mph - N/A   Clear
5:55 PM 35.6 °F 29.9 °F 5.0 °F 28% 29.93 in 10.0 mi North 6.9 mph - N/A   Clear
6:15 PM 33.8 °F 28.6 °F 5.0 °F 30% 29.94 in 10.0 mi NNW 5.8 mph - N/A   Clear
6:35 PM 33.8 °F 28.6 °F 5.0 °F 30% 29.93 in 10.0 mi NNW 5.8 mph - N/A   Clear
6:55 PM 32.0 °F 24.8 °F 5.0 °F 32% 29.94 in 10.0 mi NW 8.1 mph - N/A   Clear
7:15 PM 32.0 °F 26.4 °F 6.8 °F 35% 29.95 in 10.0 mi NW 5.8 mph - N/A   Clear
7:35 PM 32.0 °F 25.6 °F 6.8 °F 35% 29.96 in 10.0 mi NW 6.9 mph - N/A   Clear
7:55 PM 32.0 °F 24.2 °F 6.8 °F 35% 29.96 in 10.0 mi NW 9.2 mph - N/A   Clear
8:15 PM 32.0 °F 25.6 °F 6.8 °F 35% 29.98 in 10.0 mi NW 6.9 mph - N/A   Clear
8:35 PM 32.0 °F 25.6 °F 5.0 °F 32% 29.97 in 10.0 mi NW 6.9 mph - N/A   Clear
8:55 PM 30.2 °F 24.3 °F 6.8 °F 37% 29.98 in 10.0 mi NNW 5.8 mph - N/A   Clear
9:15 PM 30.2 °F 24.3 °F 5.0 °F 34% 29.98 in 10.0 mi NNW 5.8 mph - N/A   Clear
9:35 PM 30.2 °F 25.4 °F 5.0 °F 34% 29.98 in 10.0 mi North 4.6 mph - N/A   Clear
9:55 PM 28.4 °F 24.6 °F 5.0 °F 37% 29.98 in 10.0 mi North 3.5 mph - N/A   Clear
10:15 PM 28.4 °F 23.3 °F 5.0 °F 37% 29.98 in 10.0 mi North 4.6 mph - N/A   Clear
10:35 PM 28.4 °F 22.2 °F 5.0 °F 37% 29.98 in 10.0 mi North 5.8 mph - N/A   Clear
10:55 PM 28.4 °F - 5.0 °F 37% 29.97 in 10.0 mi Calm Calm - N/A   Clear
11:15 PM 28.4 °F 22.2 °F 5.0 °F 37% 29.97 in 10.0 mi North 5.8 mph - N/A   Clear
11:35 PM 26.6 °F 21.2 °F 8.6 °F 47% 29.98 in 10.0 mi North 4.6 mph - N/A   Clear
11:55 PM 26.6 °F 22.6 °F 8.6 °F 47% 29.98 in 10.0 mi North 3.5 mph - N/A   Clear